RH
66 69 71 72 73 75 76 78 77 75 79 79 78 76 71 71 69 69 71 71 71 67 64 63 60 60 61 62 64 65 65 65 65 72 68 45 40 50 57 59 56 56 55 55 55 53 54 55 54 55 55 54 55 54 55 56 58 60 59 56 53 51 51 52 49 48 46 46 48 49 49 49 45 40 38 39 41 43 43 43 42 43 46 48 49 51 51 53 55 54 53 51 51 50 50 50 52
68 70 72 73 73 76 76 79 77 73 75 79 83 78 71 72 71 69 70 69 70 68 64 61 58 59 61 62 62 63 66 66 64 71 61 39 39 47 54 61 59 57 55 54 55 53 53 55 54 56 56 56 57 55 54 55 56 60 60 59 57 54 51 52 50 48 47 46 47 48 49 53 50 43 40 38 39 42 43 42 42 44 46 48 49 50 51 53 55 57 56 54 53 52 51 52 53
68 69 70 70 69 72 74 79 80 77 77 80 83 77 73 75 74 69 66 65 66 66 62 59 59 61 63 63 64 64 65 66 63 62 50 38 40 46 54 61 61 58 55 54 54 53 54 54 54 54 56 57 58 56 55 55 56 59 60 60 60 56 53 53 52 49 47 47 49 50 50 53 54 49 46 43 40 40 43 42 42 44 46 47 48 48 49 51 53 57 59 56 55 54 53 52 53
65 67 67 68 70 72 74 79 80 82 82 80 80 76 75 74 74 69 63 63 63 62 60 60 64 66 65 62 65 64 62 62 61 55 46 42 43 45 51 60 61 57 55 55 56 53 53 54 53 53 54 56 56 56 55 55 56 58 58 58 60 60 56 55 54 52 49 47 51 53 51 52 55 55 54 53 48 43 43 43 43 44 46 48 48 48 48 49 51 55 60 59 57 56 54 53 53
61 66 66 66 72 74 75 78 78 82 82 80 78 77 79 76 74 70 63 63 62 61 62 64 66 64 63 62 63 63 60 59 57 51 48 47 45 44 49 59 60 58 57 56 57 54 52 53 52 51 52 54 54 56 55 54 56 57 58 57 59 61 61 60 58 57 53 49 51 54 54 54 55 57 58 59 57 51 48 47 46 46 47 49 50 49 48 49 50 54 59 61 60 59 56 55 53
60 65 68 68 71 74 77 80 79 81 79 78 78 76 80 79 77 73 66 64 63 64 66 68 66 62 61 60 62 62 62 58 56 56 51 45 46 47 50 59 60 60 60 57 57 53 51 51 50 51 52 54 55 56 56 55 55 57 59 58 59 62 63 64 63 62 59 53 51 53 56 56 56 57 59 59 59 57 54 52 51 50 49 49 49 49 47 48 49 53 57 60 63 63 59 56 54
61 65 70 72 73 75 80 80 79 79 75 76 77 74 76 77 76 74 68 67 66 67 69 69 67 64 59 58 59 58 60 59 61 59 50 43 48 48 51 61 62 62 61 58 56 50 48 48 46 48 51 54 55 57 59 57 56 58 59 60 61 61 62 65 66 67 66 60 54 53 55 57 57 57 59 59 59 58 58 58 57 55 54 50 48 47 47 47 48 51 55 58 63 65 63 58 56
58 61 64 70 74 78 82 78 77 77 74 74 73 71 72 73 75 75 71 70 70 69 70 69 67 65 61 62 60 54 55 58 58 53 44 42 47 47 50 58 61 62 59 58 56 48 45 47 45 45 48 52 56 58 60 58 56 59 61 61 63 62 61 64 66 68 70 68 63 59 57 57 58 58 59 59 59 59 60 62 61 60 58 55 51 48 46 47 49 51 53 54 60 65 64 60 58
58 61 63 72 75 77 81 76 76 76 72 73 70 68 70 71 75 76 73 75 78 75 73 70 68 66 63 63 61 54 51 51 49 45 40 41 45 46 49 54 58 59 58 56 51 44 44 48 46 47 49 50 54 55 58 59 57 57 59 60 62 63 63 63 65 67 69 71 72 69 64 60 58 59 60 61 61 61 62 63 63 62 62 61 57 51 48 49 50 52 52 52 58 63 62 61 59
57 60 63 73 74 72 76 72 71 71 69 71 70 70 69 69 73 75 74 77 79 77 73 70 66 66 65 64 64 56 48 45 42 41 40 41 43 45 48 52 55 56 56 53 46 41 44 48 50 51 52 51 53 53 53 56 57 56 56 59 61 64 65 64 63 65 68 70 74 75 73 67 62 61 62 63 62 62 62 64 65 63 62 64 62 58 54 55 55 54 53 55 59 61 61 61 58
54 57 59 68 67 62 67 66 64 64 65 68 69 70 70 71 74 74 77 79 77 75 72 70 68 68 66 63 64 57 47 44 40 41 41 40 43 45 47 50 55 55 54 52 44 42 43 47 53 54 55 53 54 54 53 53 57 58 57 59 62 64 66 63 62 65 69 72 75 76 77 74 70 67 64 63 62 62 64 63 64 64 63 63 64 62 60 59 59 58 56 58 60 60 61 60 57
51 55 57 60 56 53 59 59 58 59 60 62 63 68 72 73 74 74 79 83 80 77 75 76 75 69 66 63 61 58 54 51 44 41 41 42 44 45 46 50 56 54 54 53 45 45 45 45 51 54 55 55 54 56 57 54 54 58 59 61 61 63 64 62 64 66 69 74 77 76 75 76 75 72 69 68 65 66 66 65 66 67 66 63 62 64 63 61 60 60 59 59 58 56 58 58 55
46 49 51 50 45 47 53 54 57 57 55 55 56 59 68 72 72 76 79 80 79 77 75 78 76 69 68 65 61 62 62 58 49 43 42 45 45 45 45 49 55 54 58 55 45 47 46 45 49 51 54 56 55 55 58 58 56 56 57 60 60 60 60 62 64 63 65 71 77 77 75 75 76 74 74 75 73 72 72 71 71 70 70 67 63 64 65 63 62 60 60 60 57 55 56 56 53
42 43 47 46 41 40 44 52 56 53 50 49 49 52 60 64 65 70 74 80 82 78 76 75 74 71 69 66 65 65 64 59 54 49 47 46 45 45 46 49 54 55 59 56 50 50 47 47 51 51 54 58 59 56 57 59 58 56 54 56 57 59 58 59 61 61 62 67 75 77 74 72 74 74 76 77 77 76 75 75 75 72 72 72 68 67 68 66 64 63 62 60 55 54 54 52 50
40 41 44 41 34 31 36 49 51 49 50 47 46 50 56 58 59 64 70 79 80 76 77 75 74 74 70 69 70 66 63 59 56 55 51 47 46 47 47 49 55 57 58 58 53 50 48 49 51 53 55 59 59 56 57 58 58 58 58 56 55 58 60 60 59 60 62 64 70 73 72 72 73 74 77 78 78 78 78 78 78 76 76 75 73 71 71 68 65 66 64 59 53 52 51 48 48
39 42 42 33 28 27 31 41 45 48 51 47 45 53 61 60 60 62 66 73 71 71 76 75 75 75 72 72 71 66 63 60 58 58 54 49 46 47 48 50 55 57 58 61 57 52 51 49 49 53 55 58 57 55 60 61 60 61 63 61 58 59 61 62 61 60 62 63 68 71 72 73 74 76 78 79 79 80 80 80 80 80 79 76 75 75 72 67 64 66 64 58 52 49 48 46 46
38 40 39 30 26 25 28 33 38 43 44 45 44 51 64 64 63 62 64 67 66 68 70 69 71 72 73 72 68 65 62 59 58 57 55 51 47 46 48 51 53 55 58 61 59 54 51 49 50 51 53 57 55 54 61 63 61 61 63 63 63 64 64 63 62 61 63 67 70 72 75 75 75 79 80 79 81 81 80 81 82 80 78 76 77 78 74 68 64 64 63 59 54 50 48 46 47
35 39 33 27 26 23 26 28 31 36 39 43 42 46 57 61 60 60 61 62 62 64 63 64 65 68 71 69 64 62 60 58 57 57 56 55 50 47 47 49 51 53 57 57 56 55 52 50 50 51 51 53 51 54 62 63 62 63 65 67 66 67 67 66 65 65 67 71 73 73 76 77 78 82 82 80 80 82 80 82 83 82 80 78 79 80 75 69 66 64 61 60 55 51 49 48 48
30 38 30 28 33 26 24 25 26 34 41 42 40 41 47 50 54 57 60 61 61 62 63 64 64 68 68 64 62 59 59 58 57 57 58 58 53 49 48 47 49 52 55 56 56 54 51 50 47 47 49 51 52 54 59 60 61 62 64 66 66 67 68 67 67 69 70 73 75 76 78 79 80 81 81 79 79 81 81 83 85 85 84 82 82 80 75 69 66 65 61 59 55 52 52 51 49
24 33 29 30 37 30 25 23 22 32 39 40 40 41 43 43 48 54 56 60 63 61 61 62 62 67 64 61 62 59 60 60 58 57 58 60 56 51 48 46 47 50 53 56 57 55 51 49 47 45 44 47 51 51 54 57 59 58 60 62 64 66 67 68 70 71 72 73 76 79 80 81 79 78 78 79 79 81 83 86 87 87 85 83 82 81 76 69 66 66 63 60 56 54 54 53 50
24 26 25 27 33 33 29 23 23 30 35 39 42 43 42 40 45 52 53 56 59 58 56 56 57 59 58 59 63 61 61 61 60 59 61 65 63 56 51 48 48 49 53 55 56 56 53 50 48 44 42 45 50 50 51 55 56 56 59 62 64 66 66 66 69 69 70 73 76 78 80 81 79 77 79 79 80 82 82 85 85 82 80 81 82 80 75 70 67 68 66 60 58 56 54 53 49
25 24 22 28 32 33 29 22 25 32 34 38 38 36 39 44 47 45 45 47 48 52 53 51 51 52 56 59 61 62 63 63 64 64 67 70 68 66 59 52 51 51 53 54 54 56 56 53 49 45 43 44 47 50 52 53 53 55 60 63 64 65 65 66 69 70 70 74 77 77 77 80 81 79 79 80 82 83 81 82 82 77 76 77 78 76 72 69 68 66 63 60 59 56 52 51 49
26 24 22 31 34 31 29 24 27 31 28 28 29 33 38 44 48 40 41 46 43 48 51 47 49 49 53 56 56 61 65 66 68 69 71 71 70 71 67 61 58 55 54 56 55 56 57 57 52 48 47 44 44 49 54 53 51 54 60 63 64 65 67 71 74 75 76 77 77 79 80 79 80 80 77 78 83 83 79 79 80 76 75 75 73 71 68 67 66 62 60 58 56 53 49 48 49
21 21 22 31 34 29 27 27 25 23 23 22 28 39 36 34 43 41 44 49 43 48 51 47 48 50 51 50 52 59 64 68 70 70 70 70 72 72 71 70 67 61 59 59 58 56 57 58 54 51 49 47 46 47 50 52 51 54 56 58 62 64 69 75 77 79 80 81 80 82 84 82 80 80 77 77 82 82 77 77 79 77 75 73 70 67 64 64 63 59 57 56 53 50 47 46 49
16 17 25 31 32 28 26 30 25 19 23 24 31 43 38 34 41 40 44 50 44 49 55 50 45 47 50 50 53 60 63 66 68 69 70 71 74 73 75 75 70 68 64 62 60 57 58 59 57 56 54 49 49 49 49 49 50 53 54 55 59 61 67 73 76 78 79 82 84 84 85 83 82 83 81 78 79 79 77 76 76 76 73 71 69 65 62 61 61 58 55 53 50 48 46 47 47
15 13 23 27 28 26 25 31 26 19 24 25 29 39 38 36 40 40 44 46 43 50 59 54 47 49 52 51 56 61 61 65 67 67 69 72 74 74 77 77 71 70 68 67 66 62 60 60 58 59 59 54 51 51 51 51 51 53 55 56 59 60 64 70 73 76 77 80 85 85 84 83 82 85 83 78 78 78 78 77 73 73 72 68 67 64 61 59 58 55 52 49 47 46 45 47 46
14 11 18 22 24 25 24 28 23 19 28 25 22 31 34 33 37 40 42 41 44 55 61 55 52 55 53 50 54 55 56 63 65 65 69 73 75 75 78 79 74 72 72 71 70 67 65 63 60 60 62 59 54 52 54 55 54 52 52 55 58 60 64 69 74 78 77 77 81 82 82 83 83 85 82 78 79 78 78 77 73 72 71 67 63 61 58 56 55 51 49 47 45 47 47 47 46
14 12 15 20 22 24 27 29 23 21 30 25 17 26 34 35 35 35 37 41 45 54 58 55 52 53 51 48 49 52 54 59 61 63 71 75 75 76 77 77 76 73 73 72 70 70 68 66 63 62 63 61 57 57 56 57 58 53 51 54 58 60 65 69 75 80 78 76 78 79 80 83 83 84 83 80 79 76 75 76 73 71 69 65 61 58 55 53 53 49 47 48 48 49 49 50 50
13 12 15 23 25 26 29 30 22 19 25 21 18 30 37 37 34 31 37 44 44 47 53 55 51 48 49 47 46 51 55 58 59 63 73 77 73 74 75 75 75 72 72 72 71 71 70 68 66 63 64 62 60 61 58 57 60 56 53 56 57 61 65 68 75 80 79 78 79 78 78 81 82 83 82 80 78 74 75 76 71 70 67 62 59 57 54 50 49 48 47 49 50 51 49 50 52
13 14 19 24 27 29 31 31 23 20 25 19 19 31 36 35 31 26 32 39 40 43 48 52 50 46 47 48 47 50 53 55 60 65 71 74 69 69 71 71 72 70 70 72 72 72 71 69 67 65 67 64 62 65 62 59 62 59 56 57 58 60 64 67 74 77 77 79 81 78 76 76 79 82 79 78 78 73 73 74 70 68 64 59 59 58 53 47 47 48 47 48 50 53 50 48 51
14 18 21 22 26 32 35 34 25 23 29 22 19 26 30 33 30 25 23 27 38 45 47 48 47 45 45 46 47 49 50 51 58 66 70 70 65 64 65 64 65 64 66 71 72 71 70 70 69 67 67 66 64 67 64 59 60 62 61 59 58 59 63 67 72 76 76 77 79 79 76 74 76 80 78 77 78 74 71 71 68 68 64 58 59 57 51 47 48 47 45 46 49 53 50 46 49
20 20 21 19 24 33 34 31 25 24 27 22 20 24 27 32 32 28 23 23 35 44 45 48 47 44 43 42 42 44 45 48 53 58 61 63 61 60 60 59 59 60 61 65 69 70 70 70 70 67 67 66 64 66 65 60 58 62 63 62 60 59 62 66 72 76 76 76 78 78 76 73 73 78 78 74 74 72 69 68 67 67 61 57 57 53 50 48 48 46 43 44 47 51 49 44 48
22 20 19 19 23 30 30 28 25 22 21 21 23 25 27 31 30 30 28 25 32 40 42 47 47 43 41 41 41 41 42 46 49 52 56 57 56 56 57 57 56 56 57 57 63 68 70 72 71 70 70 67 64 64 65 61 58 59 62 63 61 60 61 65 70 76 75 75 77 77 76 73 73 74 74 72 71 69 68 68 67 63 56 53 51 49 50 51 47 46 43 44 46 50 48 42 45
19 20 19 20 22 24 26 29 27 21 20 19 19 22 25 28 30 32 35 31 33 39 41 43 46 43 42 42 42 48 49 49 51 53 57 56 54 55 55 56 55 54 54 53 57 62 66 70 71 71 72 69 65 64 65 63 61 58 59 64 63 59 62 63 67 74 75 75 76 76 74 72 72 72 70 68 68 67 68 67 66 63 56 49 45 43 49 51 48 46 45 45 46 49 49 44 43
20 23 22 20 21 20 23 28 26 21 19 15 14 21 27 30 33 33 36 34 32 37 38 39 42 44 45 42 46 55 56 57 60 57 57 55 54 57 54 53 53 52 52 52 54 57 60 65 69 70 72 71 67 66 66 65 64 60 58 63 64 60 62 63 66 72 75 75 75 74 71 71 72 71 69 66 63 64 67 67 64 60 55 49 43 41 46 49 48 45 45 46 46 47 51 48 43
20 22 21 20 19 17 18 21 22 20 16 12 13 20 25 27 30 30 32 33 31 33 37 39 41 44 46 44 49 56 54 57 60 57 58 57 53 57 55 51 50 50 51 51 53 56 57 61 65 68 71 71 69 67 66 65 65 64 60 62 66 63 61 62 65 70 75 75 75 74 70 71 72 70 69 66 61 61 64 65 61 54 50 48 44 42 45 47 46 44 44 46 47 48 51 49 44
17 17 19 19 17 15 17 20 21 20 14 12 12 15 17 19 23 28 32 33 30 31 35 40 42 42 44 46 48 50 50 51 52 53 57 57 53 55 53 49 49 51 51 50 51 54 55 56 59 63 66 69 68 66 66 65 64 63 61 62 65 65 62 62 65 70 75 75 75 73 70 70 70 68 68 66 62 62 61 60 58 51 47 45 43 44 45 45 45 47 46 46 48 49 51 49 44
14 14 16 18 16 15 20 22 22 21 18 15 13 13 16 18 22 30 34 33 34 34 34 35 39 41 43 47 49 47 47 49 49 53 55 53 53 55 52 49 49 51 51 50 51 53 55 54 55 59 61 63 64 64 65 66 64 62 63 64 65 67 65 62 64 70 74 75 75 72 70 70 68 66 67 65 64 63 60 58 56 50 45 43 42 43 44 44 45 49 48 46 47 49 53 52 46
13 12 13 15 16 15 17 20 20 22 21 17 14 14 19 21 24 29 32 34 37 35 31 30 35 43 44 44 47 46 47 51 49 48 49 48 49 52 52 50 48 48 48 49 52 53 54 54 54 56 59 61 60 61 63 66 66 64 64 65 65 66 66 64 63 67 73 75 75 72 70 70 69 67 65 63 62 62 61 59 56 50 43 41 40 40 44 44 45 49 49 46 46 47 52 54 48
10 11 12 14 16 15 16 20 22 22 20 16 16 18 22 25 28 30 31 33 36 33 31 31 33 39 42 40 43 47 49 54 51 46 45 46 47 49 50 50 49 46 44 47 50 51 53 54 54 55 59 61 59 59 61 62 65 65 62 62 64 64 67 67 64 65 69 73 73 71 71 71 69 66 62 60 60 60 60 59 57 51 42 39 39 41 44 44 45 49 50 48 46 44 47 50 47
10 11 12 13 14 14 15 19 20 19 20 20 20 23 24 26 30 30 29 31 35 34 33 35 33 34 37 36 40 47 50 54 53 48 46 46 48 47 47 48 48 44 41 43 46 48 52 54 53 54 57 59 59 59 59 58 61 65 63 60 61 63 66 68 67 65 66 70 71 70 70 70 68 66 62 61 59 58 59 58 58 51 41 38 40 41 41 42 45 49 52 49 44 43 47 50 47
11 12 13 13 12 13 14 16 17 16 21 25 24 24 24 27 30 28 28 32 37 37 33 33 34 34 36 35 38 42 45 51 53 48 45 46 48 47 46 47 46 45 43 43 44 46 50 53 53 52 54 57 58 58 59 57 59 63 64 61 58 59 64 66 69 68 65 67 68 67 68 68 67 67 64 61 59 56 58 58 56 50 42 39 36 35 38 43 47 49 51 49 46 48 51 54 52
10 12 14 13 12 14 14 14 15 14 19 24 23 22 23 26 31 30 31 36 38 36 33 33 34 36 36 35 37 37 38 44 49 49 49 49 49 50 49 48 47 47 46 45 46 46 48 49 51 51 53 56 58 59 60 59 58 60 63 65 61 57 61 64 66 70 68 65 65 65 66 66 66 67 65 62 59 58 58 57 53 50 46 40 31 30 40 49 51 50 51 51 49 52 54 55 55
10 12 14 16 15 16 15 14 15 14 16 19 19 23 27 29 31 32 33 37 38 36 35 34 35 36 36 33 34 38 40 41 42 49 54 53 55 58 55 50 48 47 47 46 46 46 47 47 50 50 50 55 59 60 62 62 59 59 61 66 67 61 59 62 64 68 70 67 66 66 64 63 64 66 65 62 61 61 57 54 50 50 48 40 30 32 42 51 54 51 51 52 51 54 56 55 54
11 13 14 15 16 16 16 15 15 16 15 17 19 22 25 30 31 29 31 35 37 37 36 36 36 36 35 33 33 38 46 46 44 48 55 57 64 67 61 54 49 47 47 47 45 45 45 46 48 48 48 52 56 57 62 64 60 58 60 63 69 66 60 60 61 65 68 68 67 66 64 62 60 63 65 61 62 61 55 51 50 49 48 41 32 36 44 49 54 53 51 52 53 54 56 54 52
12 13 12 12 12 13 15 15 16 17 18 19 20 20 21 28 30 29 30 33 36 37 36 38 39 37 34 32 34 39 43 47 47 48 52 57 63 69 69 62 55 51 49 48 46 45 46 46 46 47 48 49 52 54 60 62 60 59 59 61 66 67 64 61 60 62 65 66 67 66 64 62 59 60 62 61 62 62 55 50 49 49 47 41 36 43 48 48 53 54 51 52 53 53 54 55 54
12 12 12 12 12 15 16 18 19 20 23 23 22 22 21 24 28 30 33 34 34 36 38 40 39 37 36 32 34 39 42 46 48 47 48 50 55 66 73 66 57 54 53 52 49 47 47 46 46 48 48 48 49 52 56 58 60 61 61 61 63 64 64 63 61 61 63 64 66 66 64 62 60 57 58 61 61 61 57 50 49 50 48 43 42 48 52 51 54 54 51 53 54 52 54 55 56
11 10 11 12 15 18 19 21 23 24 28 27 24 25 22 24 28 31 34 33 32 34 37 38 35 35 37 34 34 37 41 46 48 45 44 47 51 62 73 71 64 61 59 58 55 52 52 49 48 49 48 49 50 52 54 55 57 60 61 62 63 63 64 64 62 62 63 64 65 67 65 63 62 59 60 63 61 60 58 51 49 50 48 46 47 52 55 53 54 53 52 53 53 53 54 53 54
10 11 12 14 17 20 22 25 27 29 29 25 24 26 24 26 29 30 32 31 32 35 33 32 33 33 35 37 36 35 37 38 43 47 49 52 52 55 65 71 74 73 68 65 61 57 56 54 51 50 48 49 50 49 52 53 55 57 61 63 64 65 65 64 64 64 64 65 66 68 67 65 64 62 62 63 60 59 59 54 49 50 48 48 50 54 56 54 54 54 53 54 53 52 52 52 53
12 15 15 16 18 20 23 24 25 26 25 23 25 26 25 28 29 30 33 32 32 34 30 30 33 32 31 35 35 36 36 35 38 44 47 50 49 50 59 66 73 82 78 73 69 62 60 58 54 53 50 49 50 50 50 52 54 55 58 63 66 67 67 65 65 66 67 67 66 68 70 69 68 65 63 64 62 60 59 56 52 50 49 48 50 55 56 54 55 57 57 56 54 51 50 52 52
14 16 16 16 16 19 21 20 20 21 20 24 26 26 27 29 30 32 33 32 32 31 30 31 33 32 31 34 36 35 38 38 37 37 39 42 45 51 61 60 63 73 75 74 74 69 65 64 57 53 51 49 50 52 54 56 58 57 59 64 67 68 68 66 67 68 69 69 67 68 71 70 70 69 65 64 65 64 62 59 54 51 50 48 49 53 57 55 54 59 60 56 53 50 48 50 50
15 15 16 15 14 17 18 18 19 18 18 22 24 25 28 29 31 34 32 30 31 31 31 32 33 33 32 34 36 36 38 40 39 38 38 41 46 51 57 55 54 60 66 71 73 68 65 64 61 55 52 52 54 56 58 60 59 59 60 63 65 67 67 66 67 68 69 70 69 70 73 70 68 70 69 66 65 64 63 62 59 55 52 50 48 50 55 55 54 58 60 57 55 53 49 49 50
16 16 15 15 15 16 16 17 18 18 20 24 27 30 32 32 33 34 32 32 33 31 33 34 34 35 36 36 38 41 42 39 39 40 39 38 42 46 49 52 53 54 57 62 67 68 66 65 63 58 55 57 60 62 61 58 56 55 55 58 60 62 65 66 66 66 66 67 66 69 72 71 68 68 70 69 66 65 63 62 63 60 55 52 50 50 51 53 56 57 58 59 59 55 51 51 52
16 16 15 16 17 17 17 18 20 21 23 26 28 29 33 38 39 36 34 35 35 32 33 35 35 36 39 40 40 42 41 38 38 41 40 37 37 40 43 47 53 54 53 55 62 69 69 65 62 60 60 63 63 63 61 56 53 54 54 57 59 59 61 63 64 63 62 61 62 64 67 72 74 72 71 68 67 68 64 60 62 63 59 56 53 52 50 49 53 56 57 59 59 55 53 53 52
14 15 16 16 18 18 19 22 24 25 28 29 30 30 33 38 40 38 37 36 35 36 38 38 35 34 37 39 39 40 41 41 40 40 42 40 35 35 40 45 51 54 54 55 58 61 63 63 62 61 63 65 63 61 60 55 52 53 56 58 58 58 57 59 60 61 60 59 62 63 65 69 73 74 73 68 68 71 66 60 60 61 61 60 57 55 53 51 51 52 56 60 57 52 51 51 50
14 14 16 17 18 18 19 21 21 23 28 30 33 37 36 35 37 38 37 35 34 37 39 38 35 33 35 40 40 40 43 44 39 37 41 40 34 33 38 43 47 49 51 55 56 55 56 60 62 61 60 60 60 62 61 56 52 53 55 58 60 60 58 57 56 57 58 59 63 65 65 65 66 69 72 69 67 71 69 63 61 60 61 62 60 58 57 55 52 50 53 58 55 50 49 49 49
16 16 19 20 19 18 19 19 17 19 23 28 36 45 43 37 38 38 36 36 35 35 35 35 34 34 36 39 39 38 44 47 41 39 42 40 33 33 35 38 42 43 46 52 56 57 56 57 59 59 57 54 56 60 61 58 56 54 52 54 59 61 59 58 57 57 57 58 60 62 63 64 64 64 67 67 65 68 68 65 63 62 61 61 62 61 59 58 56 51 49 52 54 54 52 50 49
19 19 19 20 19 19 21 20 19 20 21 25 35 46 44 39 38 38 37 38 38 35 34 33 33 34 35 36 36 37 43 47 44 42 43 40 35 34 35 36 36 37 40 46 52 54 54 53 54 55 54 50 50 54 56 56 57 55 52 53 56 57 56 56 57 57 57 55 56 59 60 62 61 59 61 63 62 60 60 62 63 62 62 63 61 61 61 62 59 54 51 51 52 56 55 51 49